Weather Roundup
Issued by NWS

Home | Current Version | Previous Version | Graphics & Text | Print | Product List | Glossary Off
Versions: 1 2 3 4 5 6 7 8 9 10 11 12 13 14 15 16 17 18 19 20 21 22 23 24 25 26 27 28 29 30 31 32 33 34 35 36 37 38 39 40 41 42 43 44 45 46 47 48 49 50

580
NZUS93 KARX 230010
HRRWXR

CURRENT HOURLY OBSERVATIONS ACROSS
MUCH OF THE UPPER MISSISSIPPI VALLEY
NATIONAL WEATHER SERVICE LA CROSSE WI
600 PM CST SUN JAN 22 2017


...SOUTHEAST MINNESOTA...


CITY           SKY/WX    TMP DP  RH WIND       PRES   REMARKS
ROCHESTER      CLOUDY    34  34 100 NW9       29.74R FOG     WCI  27
ROCHESTER/MAYO CLOUDY    35  35 100 W10       29.74R WCI  27
WINONA         CLOUDY    36  34  93 NW5       29.74S WCI  32
AUSTIN         CLOUDY    36  34  93 NW6       29.75R FOG     WCI  31
ALBERT LEA     FOG       36  36 100 NW5       29.75S VSB 1   WCI  32
DODGE CENTER   CLOUDY    34  34 100 CALM      29.74R FOG
PRESTON        CLOUDY    33  32  96 NW8       29.74R FOG     WCI  26
OWATONNA       CLOUDY    36  34  93 W6        29.76R FOG     WCI  31
FARIBAULT      NOT AVBL
$$

...ELSEWHERE IN MINNESOTA...


CITY           SKY/WX    TMP DP  RH WIND       PRES   REMARKS
MINNEAPOLIS    CLOUDY    38  34  85 W8        29.76R WCI  32
INTNL FALLS    CLOUDY    34  33  96 CALM      29.72R FOG
DULUTH         CLOUDY    36  34  92 NW6       29.70S WCI  31
RED WING       CLOUDY    37  36  93 CALM      29.75R
REDWOOD FALLS  CLOUDY    33  29  85 NW8       29.79S FOG     WCI  26
MANKATO        MIX PCPN  34  33  96 NW10      29.78R FOG     WCI  26
WORTHINGTON    CLOUDY    29  29 100 NW15      29.80R FOG     WCI  18
FAIRMONT       FOG       34  33  96 NW10      29.79R VSB 1   WCI  26
$$

...SOUTHWEST WISCONSIN...


CITY           SKY/WX    TMP DP  RH WIND       PRES   REMARKS
LA CROSSE      CLOUDY    39  34  82 NW8       29.73R WCI  33
PRAIRIE DU CHI CLOUDY    37  35  92 W3        29.73R
BOSCOBEL       CLOUDY    39  36  89 VRB5      29.73R
LONE ROCK      CLOUDY    37  35  92 W5        29.71R WCI  33
PLATTEVILLE    CLOUDY    37  37 100 NW6       29.70R WCI  33
FORT MC COY    CLOUDY    35  35 100 NW6       29.73R FOG     WCI  30
CAMP DOUGLAS   CLOUDY    36  36 100 W6        29.70R WCI  31
MAUSTON-NEW LI CLOUDY    36  36  98 NW7       29.69R FOG     WCI  31
VIROQUA        CLOUDY    34  34 100 NW6       29.70R VSB 1/2 WCI  29
WIS DELLS      CLOUDY    36  36  99 NW3       29.69R
$$

...ELSEWHERE IN WISCONSIN...


CITY           SKY/WX    TMP DP  RH WIND       PRES   REMARKS
MILWAUKEE      CLOUDY    42  37  82 NW6       29.67R
MADISON        CLOUDY    38  37  97 NW5       29.69R WCI  34
GREEN BAY      FOG       38  37  97 CALM      29.68R VSB 1/4
EAU CLAIRE     CLOUDY    34  34 100 CALM      29.72R
BLACK RVR FLS  CLOUDY    36  36 100 NW5       29.72R FOG     WCI  32
MEDFORD        FOG       34  34 100 NW5       29.68R VSB 3/4 WCI  30
WAUSAU         CLOUDY    36  35  96 NW3       29.67R FOG
WIS RAPIDS     CLOUDY    37  36  96 NW8       29.70R WCI  31
MARSHFIELD     CLOUDY    35  33  92 NW9       29.68R FOG     WCI  28
RICE LAKE      CLOUDY    36  35  98 CALM      29.73R FOG
$$

...NORTHEAST IOWA...


CITY           SKY/WX    TMP DP  RH WIND       PRES   REMARKS
WATERLOO       CLOUDY    35  33  92 NW13      29.75R WCI  26
DUBUQUE        CLOUDY    36  35  96 N9        29.70R WCI  29
DECORAH        CLOUDY    36  36 100 NW6       29.72R FOG     WCI  31
MASON CITY     CLOUDY    34  33  96 NW8       29.77S FOG     WCI  27
CHARLES CITY   CLOUDY    36  36 100 NW9       29.76R WCI  29
OELWEIN        CLOUDY    34  34 100 NW12      29.74R FOG     WCI  25
$$

...ELSEWHERE IN IOWA...


CITY           SKY/WX    TMP DP  RH WIND       PRES   REMARKS
DES MOINES     CLOUDY    38  35  89 NW12      29.78R WCI  30
IOWA CITY      CLOUDY    38  34  85 NW8       29.73S WCI  32
FORT DODGE     CLOUDY    37  34  87 CALM      29.79S
MARSHALLTOWN   CLOUDY    37  36  96 NW10      29.75R WCI  30
CEDAR RAPIDS   CLOUDY    37  35  92 NW12      29.72R WCI  29
$$

...NORTHERN ILLINOIS...


CITY           SKY/WX    TMP DP  RH WIND       PRES   REMARKS
CHICAGO-OHARE  CLOUDY    42  38  85 N9        29.65R
CHICAGO-MIDWAY CLOUDY    43  36  76 N10       29.64S
MOLINE         CLOUDY    40  35  83 NW7       29.68R
ROCKFORD       CLOUDY    37  33  85 NE8       29.68R WCI  31
PEORIA         CLOUDY    41  35  79 N7        29.65R
$$

NOTE: "FAIR" INDICATES FEW OR NO CLOUDS BELOW 12,000 FEET WITH NO
SIGNIFICANT WEATHER AND/OR OBSTRUCTIONS TO VISIBILITY. WIND
SPEEDS ARE IN MILES-PER-HOUR.




USA.gov is the U.S. government's official web portal to all federal, state and local government web resources and services.